Aurora, OR

9:23 PM PDT on April 19, 2018 (GMT -0700)
Aurora State

Weather History for KUAO - February, 2012

Change the Weather History Date:

Sunday, February 26, 2012

  Actual Average Record
Temperature  
Mean Temperature 37 °F -  
Max Temperature 42 °F - 59 °F (2008)
Min Temperature 34 °F - 19 °F (2011)
Degree Days  
Heating Degree Days 27    
Month to date heating degree days 543  
Since 1 July heating degree days 3195  
Cooling Degree Days 0    
Month to date cooling degree days 0  
Year to date cooling degree days 0  
Moisture  
Dew Point 35 °F    
Average Humidity 93    
Maximum Humidity 100    
Minimum Humidity 85    
Precipitation  
Precipitation 0.05 in - 1.19 in (1958)
Month to date precipitation 2.80  
Year to date precipitation 10.64  
Sea Level Pressure  
Sea Level Pressure 30.20 in    
Wind  
Wind Speed 5 mph (SSW)    
Max Wind Speed 13 mph    
Max Gust Speed 15 mph    
Visibility 10 miles    
Events Rain    
T = Trace of Precipitation, MM = Missing Value Source: NWS Daily Summary

Daily Weather History Graph

Daily Weather History Graph

Search for Another Location

Airport or City:

Astronomy

Feb. 26, 2012 Rise Set
Actual Time 6:55 AM PST 5:53 PM PST
Civil Twilight 6:25 AM PST 6:23 PM PST
Nautical Twilight 5:51 AM PST 6:57 PM PST
Astronomical Twilight 5:17 AM PST 7:31 PM PST
Moon 8:36 AM PST (2/26) 11:14 PM PST (2/26)
Length of Visible Light 11h 58m
Length of Day
10h 58m
Waxing Crescent, 21% of the Moon is Illuminated
Feb 26
Waxing Crescent
Feb 29
First Quarter
Mar 8
Full
Mar 14
Last Quarter
Mar 22
New

Hourly Weather History & Observations

Time (PST) Temp. Windchill Dew Point Humidity Pressure Visibility Wind Dir Wind Speed Gust Speed Precip Events Conditions
12:53 AM 36.0 °F 29.6 °F 34.0 °F 93% 30.35 in 10.0 mi SSW 8.1 mph - N/A   Mostly Cloudy
1:53 AM 37.0 °F 31.6 °F 34.0 °F 89% 30.35 in 10.0 mi SSW 6.9 mph - N/A   Overcast
2:53 AM 37.0 °F 31.6 °F 34.0 °F 89% 30.32 in 10.0 mi SSW 6.9 mph - N/A   Overcast
3:53 AM 37.0 °F 31.6 °F 34.0 °F 89% 30.30 in 10.0 mi SSW 6.9 mph - N/A   Overcast
4:53 AM 37.0 °F 31.0 °F 34.0 °F 89% 30.29 in 10.0 mi SSW 8.1 mph - N/A   Overcast
5:05 AM 37.4 °F 32.8 °F 33.8 °F 87% 30.28 in 10.0 mi SSW 5.8 mph - N/A   Overcast
5:28 AM 37.4 °F 31.4 °F 33.8 °F 87% 30.27 in 10.0 mi SSW 8.1 mph - N/A   Overcast
5:53 AM 36.0 °F 28.5 °F 33.1 °F 89% 30.27 in 10.0 mi South 10.4 mph - N/A   Overcast
6:53 AM 36.0 °F 29.6 °F 33.1 °F 89% 30.26 in 10.0 mi SSW 8.1 mph - N/A   Overcast
7:53 AM 37.0 °F 32.4 °F 34.0 °F 89% 30.25 in 10.0 mi SSW 5.8 mph - N/A   Overcast
8:51 AM 37.4 °F 32.1 °F 33.8 °F 87% 30.25 in 10.0 mi SSW 6.9 mph - N/A   Overcast
8:53 AM 37.9 °F 32.1 °F 34.0 °F 86% 30.25 in 10.0 mi South 8.1 mph - N/A   Overcast
9:45 AM 37.4 °F 31.4 °F 35.6 °F 93% 30.24 in 10.0 mi SSW 8.1 mph - 0.00 in Rain Light Rain
9:53 AM 37.9 °F 32.1 °F 35.1 °F 89% 30.25 in 10.0 mi SSW 8.1 mph - 0.00 in Rain Light Rain
10:22 AM 39.2 °F 32.5 °F 35.6 °F 87% 30.23 in 10.0 mi SW 10.4 mph - 0.00 in   Overcast
10:30 AM 39.2 °F 33.6 °F 35.6 °F 87% 30.23 in 10.0 mi SW 8.1 mph - 0.00 in   Overcast
10:53 AM 39.9 °F 35.8 °F 36.0 °F 86% 30.23 in 10.0 mi SSW 5.8 mph - 0.00 in Rain Light Rain
11:08 AM 39.2 °F 35.0 °F 35.6 °F 87% 30.23 in 10.0 mi SW 5.8 mph - 0.00 in Rain Light Rain
11:53 AM 39.9 °F 35.1 °F 36.0 °F 86% 30.22 in 10.0 mi Variable 6.9 mph - 0.00 in Rain Light Rain
12:23 PM 41.0 °F 36.4 °F 37.4 °F 87% 30.21 in 10.0 mi SSW 6.9 mph - 0.00 in   Overcast
12:30 PM 41.0 °F 35.8 °F 35.6 °F 81% 30.20 in 10.0 mi SW 8.1 mph - 0.00 in   Overcast
12:38 PM 41.0 °F 35.2 °F 35.6 °F 81% 30.20 in 10.0 mi South 9.2 mph - 0.00 in   Overcast
12:53 PM 41.0 °F 37.1 °F 37.0 °F 86% 30.20 in 10.0 mi SSW 5.8 mph - 0.01 in Rain Light Rain
1:16 PM 39.2 °F 37.0 °F 35.6 °F 87% 30.18 in 8.0 mi SSW 3.5 mph - 0.01 in Rain Light Rain
1:53 PM 41.0 °F 37.1 °F 37.0 °F 86% 30.18 in 10.0 mi SW 5.8 mph - 0.01 in   Overcast
2:08 PM 41.0 °F 37.1 °F 37.4 °F 87% 30.17 in 10.0 mi Variable 5.8 mph - 0.00 in Rain Light Rain
2:19 PM 39.2 °F 33.6 °F 35.6 °F 87% 30.17 in 10.0 mi NNW 8.1 mph - 0.00 in   Overcast
2:28 PM 37.4 °F 29.8 °F 35.6 °F 93% 30.16 in 9.0 mi North 11.5 mph - 0.01 in Rain Light Rain
2:53 PM 37.9 °F 31.5 °F 37.0 °F 97% 30.17 in 6.0 mi NNE 9.2 mph - 0.02 in Rain Light Rain
3:03 PM 39.2 °F 33.0 °F 37.4 °F 93% 30.16 in 10.0 mi NE 9.2 mph - 0.00 in   Overcast
3:31 PM 39.2 °F 35.0 °F 37.4 °F 93% 30.15 in 10.0 mi NE 5.8 mph - 0.00 in   Overcast
3:48 PM 39.2 °F - 37.4 °F 93% 30.15 in 10.0 mi Calm Calm - 0.00 in   Overcast
3:50 PM 39.2 °F - 37.4 °F 93% 30.15 in 10.0 mi Calm Calm - 0.00 in   Overcast
3:53 PM 39.0 °F - 37.0 °F 93% 30.16 in 10.0 mi Calm Calm - 0.00 in   Overcast
4:08 PM 39.2 °F - 37.4 °F 93% 30.15 in 10.0 mi Calm Calm - N/A   Overcast
4:46 PM 37.4 °F 33.8 °F 37.4 °F 100% 30.13 in 10.0 mi South 4.6 mph - 0.00 in Rain Light Rain
4:53 PM 39.0 °F 35.7 °F 37.0 °F 93% 30.14 in 10.0 mi South 4.6 mph - 0.00 in Rain Light Rain
5:01 PM 39.2 °F 35.9 °F 37.4 °F 93% 30.12 in 10.0 mi South 4.6 mph - N/A   Overcast
5:53 PM 37.0 °F - 36.0 °F 96% 30.13 in 10.0 mi Calm Calm - N/A   Overcast
6:53 PM 37.0 °F 33.3 °F 33.1 °F 86% 30.14 in 10.0 mi North 4.6 mph - N/A   Overcast
7:35 PM 37.4 °F - 32.0 °F 81% 30.13 in 10.0 mi Calm Calm - 0.00 in Rain Light Rain
7:42 PM 37.4 °F - 33.8 °F 87% 30.13 in 10.0 mi Calm Calm - 0.01 in   Overcast
7:53 PM 37.0 °F 32.4 °F 34.0 °F 89% 30.14 in 10.0 mi North 5.8 mph - 0.01 in   Overcast
8:53 PM 36.0 °F - 34.0 °F 93% 30.14 in 10.0 mi Calm Calm - N/A   Overcast
9:53 PM 34.0 °F - 33.1 °F 96% 30.14 in 10.0 mi Calm Calm - N/A   Partly Cloudy
10:13 PM 33.8 °F - 33.8 °F 100% 30.13 in 10.0 mi Calm Calm - N/A   Mostly Cloudy
10:53 PM 34.0 °F - 33.1 °F 96% 30.14 in 10.0 mi Calm Calm - N/A   Overcast
11:12 PM 33.8 °F - 33.8 °F 100% 30.13 in 10.0 mi Calm Calm - N/A   Overcast
11:53 PM 35.1 °F - 33.1 °F 92% 30.14 in 10.0 mi Calm Calm - N/A   Overcast